AAL2994 KMFE-KDFW

Flight info

Callsign AAL2994
Flight time N/A
Altitude 35000
Route CRP PSX TNV STUFT BEREE3
Aircraft B738/M-SDE2E3FGHIRWXY/LB1

Departure

Time 2026-04-24 20:45
Airport McAllen Miller International Airport (KMFE)

Arrival

Time N/A
Airport Dallas Fort Worth International Airport (KDFW)
Time Latitude Longitude Altitude Speed Heading
2026-04-24 20:23 26.17954 -98.23948 100 ft 0 kts 31°
2026-04-24 20:37 26.17951 -98.23950 100 ft 2 kts 32°
2026-04-24 20:37 26.17936 -98.23960 98 ft 2 kts 27°
2026-04-24 20:37 26.17921 -98.23967 99 ft 2 kts 22°
2026-04-24 20:38 26.17906 -98.23973 99 ft 2 kts 12°
2026-04-24 20:38 26.17889 -98.23975 99 ft 2 kts 346°
2026-04-24 20:38 26.17878 -98.23964 99 ft 2 kts 252°
2026-04-24 20:38 26.17879 -98.23960 99 ft 0 kts 237°
2026-04-24 20:41 26.17852 -98.24004 99 ft 15 kts 234°
2026-04-24 20:41 26.17841 -98.24052 101 ft 9 kts 288°
2026-04-24 20:41 26.17919 -98.24136 102 ft 17 kts 320°
2026-04-24 20:42 26.18010 -98.24221 102 ft 17 kts 320°
2026-04-24 20:42 26.18098 -98.24303 102 ft 16 kts 319°
2026-04-24 20:42 26.18187 -98.24377 102 ft 16 kts 320°
2026-04-24 20:42 26.18268 -98.24454 102 ft 15 kts 319°
2026-04-24 20:43 26.18333 -98.24525 101 ft 3 kts 291°
2026-04-24 20:43 26.18332 -98.24547 103 ft 3 kts 253°
2026-04-24 20:43 26.18323 -98.24567 105 ft 3 kts 236°
2026-04-24 20:43 26.18299 -98.24588 108 ft 7 kts 207°
2026-04-24 20:44 26.18230 -98.24575 111 ft 15 kts 142°
2026-04-24 20:44 26.18007 -98.24375 110 ft 79 kts 140°
2026-04-24 20:44 26.17388 -98.23805 112 ft 149 kts 138°
2026-04-24 20:44 26.16497 -98.22995 602 ft 173 kts 140°
2026-04-24 20:45 26.15583 -98.22149 1630 ft 169 kts 136°
2026-04-24 20:45 26.15061 -98.20913 2099 ft 197 kts 93°
2026-04-24 20:45 26.15540 -98.19395 2335 ft 229 kts 51°
2026-04-24 20:45 26.16964 -98.18454 2579 ft 253 kts 12°
2026-04-24 20:46 26.18752 -98.18310 3277 ft 253 kts
2026-04-24 20:46 26.20573 -98.18339 3686 ft 273 kts 360°
2026-04-24 20:46 26.22474 -98.18295 4459 ft 273 kts
2026-04-24 20:46 26.24394 -98.18101 4865 ft 278 kts
2026-04-24 20:47 26.26315 -98.17745 5002 ft 283 kts 11°
2026-04-24 20:47 26.28251 -98.17249 5010 ft 287 kts 14°
2026-04-24 20:47 26.30174 -98.16651 5000 ft 286 kts 16°
2026-04-24 20:47 26.32071 -98.15986 4985 ft 286 kts 18°
2026-04-24 20:48 26.33340 -98.15508 4983 ft 284 kts 19°
2026-04-24 20:48 26.35194 -98.14776 4984 ft 281 kts 20°
2026-04-24 20:48 26.37030 -98.14022 4988 ft 281 kts 20°
2026-04-24 20:48 26.38862 -98.13248 4994 ft 283 kts 21°
2026-04-24 20:49 26.40707 -98.12454 4996 ft 284 kts 21°
2026-04-24 20:49 26.42552 -98.11650 5003 ft 285 kts 22°
2026-04-24 20:49 26.44397 -98.10840 4993 ft 285 kts 22°
2026-04-24 20:49 26.46242 -98.10023 4984 ft 283 kts 22°
2026-04-24 20:50 26.48063 -98.09214 4983 ft 280 kts 22°
2026-04-24 20:50 26.49852 -98.08416 5154 ft 276 kts 22°
2026-04-24 20:50 26.51675 -98.07601 5567 ft 285 kts 22°
2026-04-24 20:50 26.53508 -98.06781 6481 ft 283 kts 22°
2026-04-24 20:51 26.55359 -98.05952 7169 ft 290 kts 21°
2026-04-24 20:51 26.56977 -98.05226 7757 ft 295 kts 21°
2026-04-24 20:51 26.58558 -98.04516 8439 ft 296 kts 21°
2026-04-24 20:51 26.60492 -98.03647 9108 ft 303 kts 21°
2026-04-24 20:52 26.62459 -98.02763 9847 ft 306 kts 21°
2026-04-24 20:52 26.64456 -98.01866 10436 ft 316 kts 20°
2026-04-24 20:52 26.66580 -98.00912 10595 ft 341 kts 20°
2026-04-24 20:52 26.68852 -97.99892 10759 ft 361 kts 20°
2026-04-24 20:53 26.71255 -97.98811 11112 ft 374 kts 20°
2026-04-24 20:53 26.73691 -97.97713 11688 ft 378 kts 20°
2026-04-24 20:53 26.76138 -97.96608 12348 ft 380 kts 20°
2026-04-24 20:53 26.78593 -97.95499 12986 ft 383 kts 19°
2026-04-24 20:54 26.81074 -97.94380 13589 ft 386 kts 19°
2026-04-24 20:54 26.83578 -97.93249 14146 ft 389 kts 19°
2026-04-24 20:54 26.86100 -97.92109 14724 ft 392 kts 19°
2026-04-24 20:54 26.88633 -97.90965 15292 ft 394 kts 18°
2026-04-24 20:55 26.91192 -97.89808 15855 ft 397 kts 18°
2026-04-24 20:55 26.93766 -97.88644 16413 ft 400 kts 18°
2026-04-24 20:55 26.96358 -97.87471 16965 ft 403 kts 18°
2026-04-24 20:55 26.98974 -97.86287 17502 ft 407 kts 18°
2026-04-24 20:56 27.01607 -97.85094 18039 ft 410 kts 18°
2026-04-24 20:56 27.04261 -97.83891 18499 ft 413 kts 17°
2026-04-24 20:56 27.06938 -97.82678 18968 ft 415 kts 17°
2026-04-24 20:56 27.09623 -97.81460 19429 ft 418 kts 17°
2026-04-24 20:57 27.12180 -97.80299 19862 ft 421 kts 17°
2026-04-24 20:57 27.12612 -97.80103 19937 ft 421 kts 17°
2026-04-24 20:58 27.13190 -97.79840 20033 ft 422 kts 17°
2026-04-24 20:58 27.15931 -97.78595 20486 ft 424 kts 17°
2026-04-24 20:58 27.18677 -97.77347 20929 ft 427 kts 16°
2026-04-24 20:58 27.21421 -97.76099 21360 ft 430 kts 16°
2026-04-24 20:59 27.24201 -97.74835 21783 ft 433 kts 16°
2026-04-24 20:59 27.27036 -97.73544 22210 ft 435 kts 16°
2026-04-24 20:59 27.29853 -97.72261 22617 ft 438 kts 15°
2026-04-24 20:59 27.32687 -97.70970 23016 ft 441 kts 15°
2026-04-24 21:00 27.34801 -97.70006 23311 ft 443 kts 15°